Regional Weather Roundup
Issued by NWS

Home | Current Version | Previous Version | Graphics & Text | Print | Product List | Glossary On
Versions: 1 2 3 4 5 6 7 8 9 10 11 12 13 14 15 16 17 18 19 20 21 22 23 24 25 26 27 28 29 30 31 32 33 34 35 36 37 38 39 40 41 42 43 44 45 46 47 48 49 50
926
ASUS43 KDTX 270901
RWRMI
MICHIGAN HOURLY REGIONAL WEATHER ROUNDUP
NATIONAL WEATHER SERVICE DETROIT/PONTIAC MI
400 AM EST MON FEB 27 2017

NOTE: "FAIR" INDICATES FEW OR NO CLOUDS BELOW 12,000 FEET WITH NO
SIGNIFICANT WEATHER AND/OR OBSTRUCTION TO VISIBILITY.

MIZ047>049-052>055-059>063-066>070-074>076-081>083-271000-
SOUTHEAST LOWER MICHIGAN

CITY           SKY/WX    TMP DP  RH WIND       PRES   REMARKS
ADRIAN         CLEAR     30  23  75 SW6       30.13S WCI  24
ALMA           PTCLDY    35  26  71 SW6       30.05S WCI  30
ANN ARBOR      CLEAR     31  23  72 S7        30.11R WCI  24
BAD AXE        CLOUDY    37  25  62 SW14      30.04R WCI  28
CARO           CLEAR     36  24  64 SW10      30.03S WCI  28
DETROIT CITY   CLEAR     36  22  56 SW13      30.11S WCI  27
DETROIT        PTCLDY    33  23  66 S10       30.13R WCI  25
FLINT          CLEAR     35  24  64 SW10      30.07S WCI  27
GROSSE ILE     CLEAR     35  23  61 SW8       30.13R WCI  29
HILLSDALE      CLEAR     34  23  64 SW9       30.10R WCI  26
HOWELL         CLEAR     35  23  62 SW8       30.07S WCI  28

CITY           SKY/WX    TMP DP  RH WIND       PRES   REMARKS
JACKSON        CLEAR     36  22  56 SW13      30.10R WCI  27
LAMBERTVILLE   CLOUDY    35  23  61 SW6       30.15R WCI  30
LANSING        PTCLDY    34  23  64 SW10      30.08R WCI  26
LAPEER         FAIR      37  24  61 SW6       30.05F WCI  32
MASON          CLEAR     36  25  65 SW8       30.08R WCI  29
MONROE         CLEAR     34  24  65 SW5       30.13R WCI  30
MT. CLEMENS    CLEAR     36  23  59 SW10      30.08R WCI  28
PONTIAC        CLEAR     36  22  56 SW7       30.06S WCI  30
PORT HOPE        N/A     37  26  64 VRB6      30.01R WCI  32
PORT HURON     CLEAR     34  23  64 SW5       30.09S WCI  30
TRI CITIES     PTCLDY    36  27  69 SW12      30.04R WCI  28
MIDLAND        MOCLDY    37  26  66 W6        30.03S WCI  32
TROY           CLEAR     34  21  57 SW7       30.11S WCI  28
SAGINAW HB     CLEAR     34  27  75 SW8       30.04S WCI  27
$$
MIZ043>046-050>051-056>058-064>065-071>073-077>080-271000-
SOUTHWEST LOWER MICHIGAN

CITY           SKY/WX    TMP DP  RH WIND       PRES   REMARKS
BATTLE CREEK   PTCLDY    32  24  72 SW10      30.09R WCI  24
BENTON HARBOR  CLEAR     37  25  61 SW14      30.11R WCI  28
BIG RAPIDS     CLEAR     31  25  77 W5        30.02S WCI  26
COLDWATER      CLEAR     35  23  62 SW9       30.11R WCI  27
FREMONT        FAIR      31  24  75 W6        30.05S WCI  25
HOLLAND        CLEAR     36  32  85 W7        30.08R WCI  30
GRAND RAPIDS   CLEAR     35  28  75 SW12      30.06R WCI  27
IONIA          MOCLDY    35  27  73 SW14      30.05R WCI  26
KALAMAZOO      MOCLDY    36  22  56 SW12      30.10R WCI  28
LUDINGTON      CLEAR     33  25  72 NW6       30.05R WCI  27
MARSHALL       CLEAR     35  23  62 SW10G16   30.09R WCI  27
MOUNT PLEASANT CLEAR     35  27  72 W7        30.03S WCI  29
MUSKEGON       CLEAR     36  25  64 W9        30.08R WCI  29
SOUTH HAVEN    PTCLDY    37  30  77 SW9       30.10R WCI  30
$$
MIZ016>042-271000-
NORTHERN LOWER MICHIGAN

CITY           SKY/WX    TMP DP  RH WIND       PRES   REMARKS
ALPENA         CLOUDY    27  20  75 NW6       30.04R WCI  20
BEAVER ISLAND  CLOUDY    24  14  64 NW6       30.04R WCI  17
BELLAIRE       CLOUDY    27  15  61 CALM      30.06R
CADILLAC       CLOUDY    27  22  81 N6        30.01R WCI  20
CHARLEVOIX     CLOUDY    26  15  61 NW8       30.07S WCI  18
FRANKFORT      CLEAR     28  19  69 CALM      30.06R
GAYLORD        CLOUDY    25  15  66 W7        30.00R WCI  17
GRAYLING       CLOUDY    27  18  67 W5        30.03R WCI  22
HARBOR SPRINGS CLOUDY    25  14  64 W3        30.04R
HOUGHTON LAKE  CLOUDY    27  22  81 NW6       30.02R WCI  20
MANISTEE       CLOUDY    29  24  82 N3        30.06R
OSCODA         PTCLDY    28  23  81 CALM      30.03R
PELLSTON       PTCLDY    22  11  62 W5        30.04R WCI  16
ROGERS CITY    CLOUDY    26  17  71 W3        30.05R
TRAVERSE CITY  CLOUDY    28  15  58 NW6       30.05R WCI  22
$$
MIZ007>008-015-271000-
EASTERN UPPER MICHIGAN

CITY           SKY/WX    TMP DP  RH WIND       PRES   REMARKS
KINROSS        CLEAR     13  11  92 SW7       30.00R WCI   3
MACKINAC ISLAN CLEAR     21  14  73 W8        30.01R WCI  12
NEWBERRY       CLEAR     11   8  86 W6        30.00R WCI   1
S. S. MARIE    CLEAR     23  11  60 W10       29.98R WCI  12
MUNISING         N/A     20  10  65 W8        30.03R WCI  10
$$
MIZ004>006-011>014-085-271000-
CENTRAL UPPER MICHIGAN

CITY           SKY/WX    TMP DP  RH WIND       PRES   REMARKS
MANISTIQUE     CLOUDY    13   8  79 W7        30.03R WCI   3
ESCANABA       PTCLDY    16  10  77 W6        30.06R WCI   7
MENOMINEE      CLEAR     19  10  68 CALM      30.08R
SAWYER-GWINN   CLOUDY     7   5  91 CALM      29.99S
$$
MIZ001>003-009>011-084-271000-
WESTERN UPPER MICHIGAN

CITY           SKY/WX    TMP DP  RH WIND       PRES   REMARKS
IRON MOUNTAIN  CLEAR      6   0  76 CALM      30.01R
HOUGHTON       MOCLDY    15   4  61 SW5       29.96R WCI   8
COPPER HARBOR    N/A     14   5  67 W7        29.99R WCI   4
IRONWOOD       MOCLDY    -4  -7  87 SE3       29.97F
$$

ABBREVIATIONS USED IN REMARKS
   TC - TEMPERATURE IN CELSIUS
  WCI - WIND CHILL INDEX
   HX - HEAT INDEX
  VSB - VISIBILITY





USA.gov is the U.S. government's official web portal to all federal, state and local government web resources and services.